Location: Albany
(35.0170°S, 117.8920°E)
Time: 21:49:02
(UTC+08:00)

A-11 Canister half - Pass Details

Date: 25 January 2021
Orbit: 1525 x 1684 km, 47.3° (Epoch: 03 March)

Event Time Altitude Azimuth Distance (km) Brightness Sun altitude
Rises 05:27:34 0° 255° (WSW) 4,926 11.2 0.5°
Reaches altitude 10° 05:31:06 10° 247° (WSW) 3,924 10.7 1.2°
Maximum altitude 05:40:23 40° 179° (S) 2,250 10.2 2.9°
Drops below altitude 10° 05:49:24 10° 112° (ESE) 3,808 14.1 4.7°
Sets 05:52:46 0° 104° (ESE) 4,768 14.2 5.3°
